CZ-6A DEB, 56687

Orbit data source: Space-Track

CZ-6A DEB, 56687 is space debris in SSO originally from a launch on Fri, 11 Nov 2022 UTC launched from the Taiyaun Space Center, China (TSC). Debris objects in space refer to the collection of defunct objects orbiting the Earth. Examples of debris include non-operational satellites, rocket bodies, and fragments generated from explosions, collisions, or faulty payload assembly.

Loading next visibility...
Identifier
56687, 2022-151AHP
Orbit
SSO
Country
Flag of CNCN / PRC
Related business
Manufacturer
SAST
Mission
Spacecraft
Bus & Motor
Unknown
Mass
Unknown
Launch date (UTC)
2022-11-11 (4 years ago)
Launch vehicle
Unknown
Launch site
Taiyaun Space Center, China (TSC)
Object type
Payload
Rocket body
Debris
Shape & HBR
Unknown shape, 0.1 m
Radar Cross Section
Small (<0.1 m²)

Expand to show TLE details & history
Last TLE update: 2 days ago

TLE from 2 days ago
0 CZ-6A DEB
1 56687U 22151AHP 26171.38332017  .00000358  00000-0  27971-3 0  9992
2 56687  98.9294 143.1103 0126341  73.8073 287.6949 13.94598506158585
Epoch: 2026-06-20T09:11Z
TLE epoch observation values (Epoch: 2026-06-20T09:11:58.862Z)
Latitude
-0.00007°
Longitude
96.51632°
Altitude
888.493 km
Speed
7.422 km/s
True Right ascension
09h 32m 26s
True Declination
0° 00' 00"
Sunlit
Object was in daylight at epoch
Visualization orbit readout
Latitude
Unknown
Longitude
Unknown
Altitude
Unknown
Speed
Unknown
Apparent Right ascension
Unknown
Apparent Declination
Unknown
Sunlit
N/A
Visualization observer readout
Local Sidereal Time
21:51:25
Azimuth
Unknown
Elevation
Unknown
Doppler factor
Unknown
Orbital elements
Apogee altitude
1,001.838 km
Perigee altitude
817.686 km
Semi-major axis
7,287.899 km
Eccentricity
0.01263
Inclination
98.9294°
RAAN
143.1103°
Arg. of periapsis
73.8073°
True anomaly
286.30912°
Mean anomaly
287.6949°
Eccentric anomaly
287.00266°
Mean motion
3.48851 °/min
Orbital period
103.2 mins
BSTAR
0.00027971
Loading maneuver chart data...
Computing Atmospheric mass density...
Loading historical data...
Loading historical data...
Loading historical data...
Loading historical data...
Loading historical data...
Loading historical data...
Loading historical data...

Documentation

Showing up to 5 results
|